When you browse on this site, cookies collect data to enhance your experience and personalize the content and advertising you see.
Visit our Privacy Policy to learn more. By continuing to use the site, you agree to this use of cookies and data.
  • In Deutschland
  • Länderverzeichnis
  • Für 7 Tage
  • Wassertemperatur
  • Satellitenkarten
  • Wetterkarte
  • Widgets
  • user-avatar
    Anmelden

    Stündliche Wetter Zarucheve

    Heute, 18 Januar, Freitag

    Zeit Temperatur Niederschläge Wind Luftdruck Luftfeuchtigkeit
    00:00 -5°C° 0.1 mm 5 m/S 738 mmHg 83%
    01:00 -6°C° 0.1 mm 5 m/S 738 mmHg 83%
    02:00 -5°C° 0 mm 4 m/S 739 mmHg 84%
    03:00 -7°C° 0 mm 4 m/S 740 mmHg 85%
    04:00 -7°C° 0 mm 3 m/S 741 mmHg 86%
    05:00 -8°C° 0 mm 3 m/S 741 mmHg 87%
    06:00 -9°C° 0 mm 3 m/S 742 mmHg 89%
    07:00 -9°C° 0 mm 2 m/S 742 mmHg 91%
    08:00 -12°C° 0 mm 2 m/S 743 mmHg 94%
    09:00 -12°C° 0 mm 2 m/S 743 mmHg 92%
    10:00 -10°C° 0 mm 2 m/S 743 mmHg 90%
    11:00 -10°C° 0 mm 2 m/S 744 mmHg 89%
    12:00 -9°C° 0 mm 2 m/S 744 mmHg 88%
    13:00 -8°C° 0 mm 2 m/S 744 mmHg 87%
    14:00 -7°C° 0 mm 2 m/S 744 mmHg 86%
    15:00 -7°C° 0 mm 2 m/S 745 mmHg 88%
    16:00 -9°C° 0 mm 3 m/S 745 mmHg 90%
    17:00 -10°C° 0 mm 3 m/S 745 mmHg 92%
    18:00 -9°C° 0 mm 3 m/S 745 mmHg 91%
    19:00 -9°C° 0 mm 3 m/S 745 mmHg 90%
    20:00 -9°C° 0 mm 4 m/S 745 mmHg 89%
    21:00 -9°C° 0.1 mm 4 m/S 746 mmHg 90%
    22:00 -9°C° 0.1 mm 4 m/S 746 mmHg 90%
    23:00 -8°C° 0.1 mm 4 m/S 746 mmHg 91%

    Morgen, 19 Januar, Samstag

    Zeit Temperatur Niederschläge Wind Luftdruck Luftfeuchtigkeit
    00:00 -8°C° 0.1 mm 4 m/S 747 mmHg 90%
    01:00 -7°C° 0.1 mm 3 m/S 747 mmHg 90%
    02:00 -7°C° 0.1 mm 3 m/S 748 mmHg 89%
    03:00 -8°C° 0 mm 3 m/S 748 mmHg 90%
    04:00 -9°C° 0 mm 2 m/S 748 mmHg 91%
    05:00 -10°C° 0 mm 2 m/S 749 mmHg 92%
    06:00 -10°C° 0 mm 2 m/S 749 mmHg 93%
    07:00 -12°C° 0 mm 2 m/S 749 mmHg 93%
    08:00 -12°C° 0 mm 2 m/S 750 mmHg 93%
    09:00 -10°C° 0 mm 2 m/S 750 mmHg 93%
    10:00 -9°C° 0 mm 2 m/S 750 mmHg 93%
    11:00 -8°C° 0 mm 2 m/S 751 mmHg 93%
    12:00 -7°C° 0 mm 2 m/S 751 mmHg 92%
    13:00 -6°C° 0 mm 3 m/S 751 mmHg 91%
    14:00 -5°C° 0 mm 3 m/S 751 mmHg 90%
    15:00 -6°C° 0 mm 3 m/S 752 mmHg 90%
    16:00 -6°C° 0 mm 3 m/S 752 mmHg 90%
    17:00 -7°C° 0 mm 3 m/S 752 mmHg 90%
    18:00 -7°C° 0 mm 3 m/S 752 mmHg 90%
    19:00 -8°C° 0 mm 4 m/S 751 mmHg 89%
    20:00 -8°C° 0 mm 4 m/S 751 mmHg 89%
    21:00 -7°C° 0 mm 5 m/S 751 mmHg 87%
    22:00 -7°C° 0 mm 5 m/S 750 mmHg 85%
    23:00 -6°C° 0 mm 6 m/S 749 mmHg 84%

    übermorgen, 20 Januar, Sonntag

    Zeit Temperatur Niederschläge Wind Luftdruck Luftfeuchtigkeit
    00:00 -6°C° 0.3 mm 6 m/S 749 mmHg 86%
    01:00 -5°C° 0.3 mm 5 m/S 749 mmHg 88%
    02:00 -4°C° 0.3 mm 5 m/S 748 mmHg 90%
    03:00 -5°C° 0.5 mm 5 m/S 748 mmHg 88%
    04:00 -5°C° 0.5 mm 5 m/S 748 mmHg 86%
    05:00 -4°C° 0.5 mm 4 m/S 747 mmHg 83%
    06:00 -6°C° 0 mm 5 m/S 748 mmHg 84%
    07:00 -7°C° 0 mm 5 m/S 748 mmHg 85%
    08:00 -7°C° 0 mm 5 m/S 749 mmHg 86%
    09:00 -8°C° 0 mm 5 m/S 749 mmHg 86%
    10:00 -8°C° 0 mm 5 m/S 750 mmHg 87%
    11:00 -9°C° 0 mm 4 m/S 751 mmHg 87%
    12:00 -9°C° 0 mm 4 m/S 751 mmHg 86%
    13:00 -9°C° 0 mm 4 m/S 751 mmHg 85%
    14:00 -11°C° 0 mm 5 m/S 751 mmHg 84%
    15:00 -10°C° 0 mm 4 m/S 752 mmHg 86%
    16:00 -10°C° 0 mm 4 m/S 752 mmHg 87%
    17:00 -10°C° 0 mm 3 m/S 752 mmHg 88%
    18:00 -12°C° 0 mm 3 m/S 752 mmHg 89%
    19:00 -12°C° 0 mm 3 m/S 752 mmHg 91%
    20:00 -13°C° 0 mm 3 m/S 753 mmHg 92%
    21:00 -12°C° 0 mm 3 m/S 753 mmHg 93%
    22:00 -12°C° 0 mm 3 m/S 753 mmHg 93%
    23:00 -12°C° 0 mm 3 m/S 753 mmHg 94%

    21 Januar, Montag

    Zeit Temperatur Niederschläge Wind Luftdruck Luftfeuchtigkeit
    00:00 -12°C° 0 mm 3 m/S 753 mmHg 94%
    01:00 -13°C° 0 mm 3 m/S 754 mmHg 94%
    02:00 -14°C° 0 mm 3 m/S 754 mmHg 94%
    03:00 -14°C° 0 mm 3 m/S 754 mmHg 93%
    04:00 -14°C° 0 mm 3 m/S 754 mmHg 93%
    05:00 -14°C° 0 mm 3 m/S 754 mmHg 92%
    06:00 -15°C° 0 mm 3 m/S 755 mmHg 93%
    07:00 -15°C° 0 mm 3 m/S 755 mmHg 93%
    08:00 -15°C° 0 mm 3 m/S 756 mmHg 93%
    09:00 -15°C° 0 mm 3 m/S 756 mmHg 93%
    10:00 -14°C° 0 mm 3 m/S 756 mmHg 92%
    11:00 -14°C° 0 mm 3 m/S 756 mmHg 92%
    12:00 -13°C° 0 mm 3 m/S 756 mmHg 91%
    13:00 -12°C° 0 mm 2 m/S 756 mmHg 91%
    14:00 -10°C° 0 mm 2 m/S 757 mmHg 90%
    15:00 -10°C° 0 mm 2 m/S 757 mmHg 92%
    16:00 -9°C° 0 mm 1 m/S 757 mmHg 94%
    17:00 -9°C° 0 mm 1 m/S 757 mmHg 96%
    18:00 -10°C° 0 mm 1 m/S 757 mmHg 96%
    19:00 -10°C° 0 mm 1 m/S 757 mmHg 97%
    20:00 -10°C° 0 mm 1 m/S 757 mmHg 97%
    21:00 -11°C° 0 mm 1 m/S 757 mmHg 97%
    22:00 -11°C° 0 mm 1 m/S 757 mmHg 98%
    23:00 -12°C° 0 mm 1 m/S 757 mmHg 98%

    22 Januar, Dienstag

    Zeit Temperatur Niederschläge Wind Luftdruck Luftfeuchtigkeit
    00:00 -12°C° 0 mm 1 m/S 757 mmHg 98%
    01:00 -12°C° 0 mm 1 m/S 757 mmHg 98%
    02:00 -12°C° 0 mm 1 m/S 757 mmHg 98%
    03:00 -12°C° 0 mm 0 m/S 757 mmHg 98%
    04:00 -12°C° 0 mm 0 m/S 757 mmHg 98%
    05:00 -11°C° 0 mm 0 m/S 756 mmHg 98%
    06:00 -11°C° 0 mm 0 m/S 756 mmHg 97%
    07:00 -11°C° 0 mm 1 m/S 756 mmHg 97%
    08:00 -11°C° 0 mm 1 m/S 756 mmHg 97%
    09:00 -11°C° 0 mm 1 m/S 756 mmHg 96%
    10:00 -12°C° 0 mm 2 m/S 756 mmHg 96%
    11:00 -12°C° 0 mm 2 m/S 756 mmHg 95%
    12:00 -12°C° 0 mm 2 m/S 756 mmHg 94%
    13:00 -10°C° 0 mm 2 m/S 755 mmHg 94%
    14:00 -12°C° 0 mm 3 m/S 755 mmHg 93%
    15:00 -12°C° 0 mm 3 m/S 755 mmHg 94%
    16:00 -12°C° 0 mm 3 m/S 754 mmHg 95%
    17:00 -12°C° 0 mm 3 m/S 754 mmHg 96%
    18:00 -12°C° 0.1 mm 3 m/S 754 mmHg 95%
    19:00 -12°C° 0.1 mm 3 m/S 754 mmHg 95%
    20:00 -10°C° 0.1 mm 3 m/S 753 mmHg 95%
    21:00 -10°C° 0 mm 3 m/S 753 mmHg 95%
    22:00 -9°C° 0 mm 3 m/S 753 mmHg 95%
    23:00 -9°C° 0 mm 3 m/S 752 mmHg 95%

    23 Januar, Mittwoch

    Zeit Temperatur Niederschläge Wind Luftdruck Luftfeuchtigkeit
    00:00 -8°C° 0 mm 3 m/S 752 mmHg 95%
    01:00 -8°C° 0 mm 3 m/S 752 mmHg 94%
    02:00 -7°C° 0 mm 3 m/S 752 mmHg 94%
    03:00 -7°C° 0 mm 3 m/S 752 mmHg 94%
    04:00 -7°C° 0 mm 3 m/S 751 mmHg 93%
    05:00 -6°C° 0 mm 3 m/S 751 mmHg 93%
    06:00 -8°C° 0 mm 4 m/S 751 mmHg 92%
    07:00 -8°C° 0 mm 4 m/S 751 mmHg 92%
    08:00 -8°C° 0 mm 4 m/S 751 mmHg 91%
    09:00 -8°C° 0 mm 4 m/S 751 mmHg 90%
    10:00 -8°C° 0 mm 4 m/S 751 mmHg 90%
    11:00 -8°C° 0 mm 4 m/S 751 mmHg 89%
    12:00 -8°C° 0 mm 4 m/S 751 mmHg 89%
    13:00 -8°C° 0 mm 4 m/S 751 mmHg 88%
    14:00 -9°C° 0 mm 4 m/S 751 mmHg 87%
    15:00 -9°C° 0 mm 4 m/S 751 mmHg 88%
    16:00 -10°C° 0 mm 4 m/S 751 mmHg 89%
    17:00 -11°C° 0 mm 4 m/S 751 mmHg 90%
    18:00 -12°C° 0 mm 4 m/S 751 mmHg 90%
    19:00 -12°C° 0 mm 4 m/S 751 mmHg 91%
    20:00 -14°C° 0 mm 4 m/S 752 mmHg 92%
    21:00 -14°C° 0 mm 4 m/S 752 mmHg 92%
    22:00 -14°C° 0 mm 4 m/S 752 mmHg 92%
    23:00 -12°C° 0 mm 3 m/S 752 mmHg 92%
    Mehr zeigen